This is the latest recevied weather packets stored in our database for station/object DM8MH-13. If no packets are shown the sender has not sent any weather packets the latest 10 day(s).
| Time | Temp. | Humidity | Pressure | Rain* | Wind** | Luminosity | Snow |
|---|---|---|---|---|---|---|---|
| 1777891271 | 22.78° C | 54% | 1012.8 hPa | 0 mm | - | 825 W/m² | - |
| 1777890672 | 22.78° C | 55% | 1012.9 hPa | 0 mm | - | 581 W/m² | - |
| 1777890072 | 22.22° C | 56% | 1013 hPa | 0 mm | - | 385 W/m² | - |
| 1777889472 | 21.67° C | 55% | 1013.1 hPa | 0 mm | - | 304 W/m² | - |
| 1777888871 | 21.67° C | 56% | 1013.1 hPa | 0 mm | - | 899 W/m² | - |
| 1777888271 | 21.67° C | 57% | 1013.2 hPa | 0 mm | - | 378 W/m² | - |
| 1777887671 | 21.11° C | 58% | 1013.5 hPa | 0 mm | - | 319 W/m² | - |
| 1777887072 | 21.11° C | 57% | 1013.5 hPa | 0 mm | - | 327 W/m² | - |
| 1777886472 | 21.67° C | 57% | 1013.5 hPa | 0 mm | - | 243 W/m² | - |
| 1777885871 | 21.67° C | 57% | 1013.5 hPa | 0 mm | - | 396 W/m² | - |
| 1777885271 | 21.67° C | 56% | 1013.5 hPa | 0 mm | - | 249 W/m² | - |
| 1777884672 | 21.67° C | 56% | 1013.5 hPa | 0 mm | - | 847 W/m² | - |
| 1777884071 | 21.11° C | 58% | 1013.6 hPa | 0 mm | - | 642 W/m² | - |
| 1777883471 | 20.56° C | 57% | 1013.5 hPa | 0 mm | - | 323 W/m² | - |
| 1777882872 | 20.56° C | 59% | 1013.4 hPa | 0 mm | - | 562 W/m² | - |
| 1777882271 | 20.56° C | 58% | 1013.6 hPa | 0 mm | - | 437 W/m² | - |
| 1777881672 | 20.56° C | 59% | 1013.4 hPa | 0 mm | - | 600 W/m² | - |
| 1777881071 | 20° C | 62% | 1013.3 hPa | 0 mm | - | 477 W/m² | - |
| 1777880471 | 19.44° C | 61% | 1013.3 hPa | 0 mm | - | 466 W/m² | - |
| 1777879872 | 19.44° C | 60% | 1013.2 hPa | 0 mm | - | 385 W/m² | - |
| 1777879271 | 19.44° C | 62% | 1013.2 hPa | 0 mm | - | 425 W/m² | - |
| 1777878671 | 18.33° C | 63% | 1013 hPa | 0 mm | - | 319 W/m² | - |
| 1777878071 | 17.22° C | 69% | 1013 hPa | 0 mm | - | 367 W/m² | - |
| 1777877472 | 16.67° C | 69% | 1012.9 hPa | 0 mm | - | 183 W/m² | - |
| 1777876871 | 16.67° C | 69% | 1012.9 hPa | 0 mm | - | 115 W/m² | - |
* Rain latest hour (hover to see other rain measurements)
** Current wind speed in m/s (hover to see current wind gust speed)